This is the latest recevied weather packets stored in our database for station/object KM4NDN. If no packets are shown the sender has not sent any weather packets the latest 10 day(s).
| Time | Temp. | Humidity | Pressure | Rain* | Wind** | Luminosity | Snow |
|---|---|---|---|---|---|---|---|
| 1777574139 | 10.56° C | 60% | 1013.2 hPa | 0 mm | - | 313 W/m² | - |
| 1777573834 | 10.56° C | 61% | 1013.2 hPa | 0 mm | - | 267 W/m² | - |
| 1777573535 | 10° C | 60% | 1013.2 hPa | 0 mm | - | 1030 W/m² | - |
| 1777573232 | 10° C | 63% | 1013.2 hPa | 0 mm | - | 236 W/m² | - |
| 1777572928 | 10° C | 61% | 1013.1 hPa | 0 mm | - | 164 W/m² | - |
| 1777572623 | 10° C | 62% | 1013.1 hPa | 0 mm | - | 256 W/m² | - |
| 1777572318 | 10° C | 63% | 1013.1 hPa | 0 mm | - | 312 W/m² | - |
| 1777572015 | 10° C | 62% | 1013.1 hPa | 0 mm | - | 136 W/m² | - |
| 1777571714 | 10.56° C | 60% | 1013.2 hPa | 0 mm | - | 207 W/m² | - |
| 1777571413 | 11.11° C | 59% | 1013.3 hPa | 0 mm | - | 352 W/m² | - |
| 1777571109 | 10° C | 64% | 1013.3 hPa | 0 mm | - | 1132 W/m² | - |
| 1777570804 | 9.44° C | 66% | 1013.4 hPa | 0 mm | - | 237 W/m² | - |
| 1777570501 | 9.44° C | 62% | 1013.3 hPa | 0 mm | - | 117 W/m² | - |
| 1777570196 | 9.44° C | 61% | 1013.3 hPa | 0 mm | - | 89 W/m² | - |
| 1777569892 | 10° C | 62% | 1013.5 hPa | 0 mm | - | 139 W/m² | - |
| 1777569589 | 10° C | 62% | 1013.5 hPa | 0 mm | - | 204 W/m² | - |
| 1777569285 | 10° C | 62% | 1013.3 hPa | 0 mm | - | 1084 W/m² | - |
| 1777568982 | 9.44° C | 59% | 1013.4 hPa | 0 mm | - | 436 W/m² | - |
| 1777568678 | 9.44° C | 60% | 1013.5 hPa | 0 mm | - | 178 W/m² | - |
| 1777568376 | 9.44° C | 61% | 1013.6 hPa | 0 mm | - | 216 W/m² | - |
| 1777568073 | 10° C | 63% | 1013.6 hPa | 0 mm | - | 189 W/m² | - |
| 1777567769 | 10° C | 59% | 1013.6 hPa | 0 mm | - | 319 W/m² | - |
| 1777567466 | 10° C | 62% | 1013.4 hPa | 0 mm | - | 556 W/m² | - |
| 1777567164 | 10° C | 59% | 1013.5 hPa | 0 mm | - | 327 W/m² | - |
| 1777566861 | 10° C | 58% | 1013.6 hPa | 0 mm | - | 284 W/m² | - |
* Rain latest hour (hover to see other rain measurements)
** Current wind speed in m/s (hover to see current wind gust speed)